Anoka County, MN

5:00 AM CDT on October 16, 2019 (GMT -0500)
Anoka County / Blaine Airport

Weather History for KANE - September, 2019

Change the Weather History Date:

Saturday, September 21, 2019

  Actual Average Record
Temperature  
Mean Temperature 76 °F -  
Max Temperature 82 °F 66 °F 87 °F (2005)
Min Temperature 71 °F 46 °F 33 °F (1999)
Cooling Degree Days 12    
Growing Degree Days 26 (Base 50)    
Moisture  
Dew Point 69 °F    
Average Humidity 82    
Maximum Humidity 100    
Minimum Humidity 66    
Precipitation  
Precipitation 0.01 in - - ()
Sea Level Pressure  
Sea Level Pressure 29.81 in    
Wind  
Wind Speed 9 mph (SSE)    
Max Wind Speed 18 mph    
Max Gust Speed 31 mph    
Visibility 10 miles    
Events Rain    
Averages and records for this station are not official NWS values.
T = Trace of Precipitation, MM = Missing Value Source: NWS Daily Summary

Daily Weather History Graph

Daily Weather History Graph

Search for Another Location

Airport or City:

Astronomy

Sep. 21, 2019 Rise Set
Actual Time 6:58 AM CDT 7:12 PM CDT
Civil Twilight 6:29 AM CDT 7:41 PM CDT
Nautical Twilight 5:54 AM CDT 8:16 PM CDT
Astronomical Twilight 5:18 AM CDT 8:51 PM CDT
Moon 11:32 PM CDT (9/21) 2:22 PM CDT (9/21)
Length of Visible Light 13h 12m
Length of Day
12h 14m
Waning Gibbous, 54% of the Moon is Illuminated
Sep 21
Waning Gibbous
Sep 21
Last Quarter
Sep 28
New
Oct 5
First Quarter
Oct 13
Full

Hourly Weather History & Observations

Time (CDT) Temp. Heat Index Dew Point Humidity Pressure Visibility Wind Dir Wind Speed Gust Speed Precip Events Conditions
12:17 AM 75.2 °F - 69.8 °F 83% 29.90 in 10.0 mi SSE 9.2 mph - N/A   Clear
12:36 AM 75.2 °F - 68.0 °F 78% 29.90 in 10.0 mi SSE 9.2 mph - N/A   Clear
12:56 AM 75.2 °F - 68.0 °F 78% 29.89 in 10.0 mi SSE 9.2 mph - N/A   Clear
1:15 AM 75.2 °F - 68.0 °F 78% 29.89 in 10.0 mi SSE 8.1 mph - N/A   Clear
1:19 AM 75.2 °F - 68.0 °F 78% 29.89 in 10.0 mi SSE 9.2 mph - N/A   Clear
1:37 AM 75.2 °F - 68.0 °F 78% 29.89 in 10.0 mi SSE 8.1 mph - N/A   Clear
1:55 AM 73.4 °F - 68.0 °F 83% 29.89 in 10.0 mi SSE 8.1 mph - N/A   Clear
2:16 AM 75.2 °F - 68.0 °F 78% 29.89 in 10.0 mi SSE 9.2 mph - N/A   Clear
2:36 AM 75.2 °F - 68.0 °F 78% 29.89 in 10.0 mi SSE 8.1 mph - N/A   Clear
2:58 AM 75.2 °F - 66.2 °F 73% 29.87 in 10.0 mi SSE 8.1 mph - N/A   Scattered Clouds
3:16 AM 73.4 °F - 68.0 °F 83% 29.86 in 10.0 mi SSE 9.2 mph - N/A   Clear
3:36 AM 73.4 °F - 66.2 °F 78% 29.86 in 10.0 mi SSE 10.4 mph - N/A   Clear
3:56 AM 73.4 °F - 68.0 °F 83% 29.85 in 10.0 mi SE 10.4 mph 16.1 mph N/A   Clear
4:15 AM 73.4 °F - 68.0 °F 83% 29.84 in 10.0 mi SSE 11.5 mph - N/A   Clear
4:19 AM 73.4 °F - 68.0 °F 83% 29.84 in 10.0 mi SSE 11.5 mph - N/A   Scattered Clouds
4:38 AM 73.4 °F - 68.0 °F 83% 29.84 in 10.0 mi SSE 10.4 mph - N/A   Mostly Cloudy
5:16 AM 71.6 °F - 71.6 °F 100% 29.83 in 4.0 mi SSE 8.1 mph - N/A Rain Rain
5:36 AM 71.6 °F - 71.6 °F 100% 29.82 in 7.0 mi SE 5.8 mph - 0.01 in Rain Rain
5:58 AM 71.6 °F - 71.6 °F 100% 29.81 in 10.0 mi SE 8.1 mph - N/A   Overcast
6:17 AM 71.6 °F - 71.6 °F 100% 29.81 in 10.0 mi SSE 9.2 mph - N/A   Overcast
6:36 AM 71.6 °F - 71.6 °F 100% 29.81 in 5.0 mi SSE 10.4 mph - N/A Rain Light Rain
6:56 AM 71.6 °F - 71.6 °F 100% 29.81 in 7.0 mi SSE 8.1 mph - N/A   Overcast
6:59 AM 71.6 °F - 71.6 °F 100% 29.81 in 7.0 mi SSE 10.4 mph - N/A   Overcast
7:45 AM 71.6 °F - 71.6 °F 100% 29.81 in 7.0 mi SSE 11.5 mph - N/A   Overcast
8:45 AM 73.4 °F - 71.6 °F 94% 29.79 in 10.0 mi South 10.4 mph 16.1 mph N/A   Mostly Cloudy
9:45 AM 75.2 °F - 71.6 °F 89% 29.79 in 10.0 mi South 11.5 mph 17.3 mph N/A   Overcast
10:45 AM 75.2 °F - 71.6 °F 89% 29.77 in 10.0 mi South 11.5 mph 17.3 mph N/A   Overcast
11:45 AM 75.2 °F - 71.6 °F 89% 29.75 in 10.0 mi South 18.4 mph 31.1 mph N/A   Overcast
12:45 PM 75.2 °F - 71.6 °F 89% 29.76 in 10.0 mi South 11.5 mph 17.3 mph N/A   Overcast
1:45 PM 77.0 °F - 71.6 °F 83% 29.75 in 10.0 mi South 11.5 mph 17.3 mph N/A   Overcast
2:45 PM 78.8 °F - 73.4 °F 83% 29.73 in 10.0 mi SSE 13.8 mph 20.7 mph N/A   Mostly Cloudy
3:45 PM 80.6 °F 85.4 °F 73.4 °F 79% 29.72 in 10.0 mi SSE 16.1 mph 24.2 mph N/A   Mostly Cloudy
4:45 PM 82.4 °F 86.3 °F 69.8 °F 66% 29.70 in 10.0 mi South 16.1 mph 24.2 mph N/A   Mostly Cloudy
5:45 PM 80.6 °F 84.6 °F 71.6 °F 74% 29.71 in 10.0 mi South 16.1 mph 21.9 mph N/A   Mostly Cloudy
6:45 PM 80.6 °F 83.9 °F 69.8 °F 70% 29.71 in 10.0 mi South 15.0 mph 20.7 mph N/A   Mostly Cloudy
7:45 PM 78.8 °F - 69.8 °F 74% 29.72 in 10.0 mi South 11.5 mph 17.3 mph N/A   Mostly Cloudy
8:45 PM 78.8 °F - 69.8 °F 74% 29.75 in 10.0 mi SW 11.5 mph 17.3 mph N/A   Mostly Cloudy
9:45 PM 77.0 °F - 69.8 °F 78% 29.77 in 10.0 mi SW 9.2 mph - N/A   Mostly Cloudy
10:15 PM 77.0 °F - 66.2 °F 69% 29.78 in 10.0 mi Calm Calm - N/A   Scattered Clouds
10:19 PM 77.0 °F - 66.2 °F 69% 29.78 in 10.0 mi Calm Calm - N/A   Scattered Clouds
10:38 PM 75.2 °F - 66.2 °F 73% 29.79 in 10.0 mi Calm Calm - N/A   Overcast
10:55 PM 75.2 °F - 64.4 °F 69% 29.80 in 10.0 mi West 3.5 mph - N/A   Overcast
11:16 PM 73.4 °F - 62.6 °F 69% 29.81 in 10.0 mi West 9.2 mph 16.1 mph N/A   Mostly Cloudy
11:36 PM 71.6 °F - 60.8 °F 69% 29.82 in 10.0 mi West 4.6 mph - N/A   Clear